{"data":{"norad_id":57926,"intl_designator":"2023-147P","name":"STARLINK-30468","alt_names":[],"object_type":"PAYLOAD","status":"ACTIVE","operator":null,"country":"US","launch_date":"2023-09-24","launch_site_code":"AFETR","launch_vehicle":null,"mission":null,"orbit_class":"UNKNOWN","rcs_meters":null,"size_class":null,"mass_kg":null,"dimensions":null,"purposes":["comms"],"wikipedia_slug":null,"has_3d_model":false,"image_url":null,"decayed_at":null,"tle_current":{"epoch":"2026-09-20T04:12:20.784384Z","epoch_age_seconds":162524,"freshness":"FRESH","line1":"1 57926U 23147P   26263.17524056 -.00004992  00000+0 -17191-3 0  9992","line2":"2 57926  43.0001 310.1285 0001087 279.9439  80.1290 15.27596878166302","mean_motion":15.27596878,"eccentricity":0.0001087,"inclination_deg":43.0001,"raan_deg":310.1285,"arg_perigee_deg":279.9439,"mean_anomaly_deg":80.129,"bstar":-0.00017191,"rev_number":16630,"period_min":94.265707186134,"perigee_km":482.25275226603,"apogee_km":483.74436313627,"semimajor_km":6861.1355577011,"source":"CELESTRAK","updated_at":"2026-09-21T09:00:33.742665Z"}}}